Weather History for Lincolnton, NC

Change the Weather History Date:

Sunday, December 9, 2012

  Actual Average (KCLT) Record (KCLT)
Temperature  
Mean Temperature 59 °F 44 °F  
Max Temperature 68 °F 54 °F 78 °F (1943)
Min Temperature 50 °F 33 °F 14 °F (2006)
Degree Days  
Heating Degree Days 6 21  
Month to date heating degree days 182  
Since 1 July heating degree days 818  
Cooling Degree Days 0 0  
Month to date cooling degree days 0  
Year to date cooling degree days 1517  
Growing Degree Days 9 (Base 50)    
Moisture  
Dew Point 54 °F    
Average Humidity 88    
Maximum Humidity 100    
Minimum Humidity 64    
Precipitation  
Precipitation 0.00 in 0.10 in 1.78 in (1878)
Month to date precipitation 0.97  
Year to date precipitation 39.35  
Snow  
Snow 0.00 in 0.00 in 0.40 in (1989)
Month to date snowfall 0.0  
Since 1 July snowfall 0.1  
Snow Depth -    
Sea Level Pressure  
Sea Level Pressure 30.06 in    
Wind  
Wind Speed 3 mph (WSW)    
Max Wind Speed 10 mph    
Max Gust Speed 17 mph    
Visibility 7 miles    
Events Fog    
T = Trace of Precipitation, MM = Missing Value Source: NWS Daily Summary

Daily Weather History Graph

Daily Weather History Graph

Search for Another Location

Airport:

Trip Planner

Search our weather history database for the weather conditions in past years. The results will help you decide how hot, cold, wet, or windy it might be!

Date:

Astronomy

Dec. 09, 2012 Rise Set
Actual Time 7:22 AM EST 5:11 PM EST
Civil Twilight 6:54 AM EST 5:40 PM EST
Nautical Twilight 6:22 AM EST 6:11 PM EST
Astronomical Twilight 5:51 AM EST 6:42 PM EST
Moon 3:00 AM EST (12/9) 2:12 PM EST (12/9)
Length of Visible Light 10h 45m
Length of Day
9h 49m
Waning Crescent, 19% of the Moon is Illuminated
Dec 9
Waning Crescent
Dec 13
New
Dec 20
First Quarter
Dec 28
Full
Jan 4
Last Quarter

Hourly Weather History & Observations

Time (EST) Temp. Dew Point Humidity Pressure Visibility Wind Dir Wind Speed Gust Speed Precip Events Conditions
12:15 AM 55.4 °F 53.6 °F 94% 30.06 in 10.0 mi WSW 5.8 mph - N/A   Overcast
12:35 AM 53.6 °F 51.8 °F 94% 30.06 in 10.0 mi WSW 4.6 mph - N/A   Overcast
12:55 AM 53.6 °F 53.6 °F 100% 30.07 in 7.0 mi WSW 3.5 mph - N/A   Overcast
1:15 AM 55.4 °F 53.6 °F 94% 30.06 in 10.0 mi WSW 4.6 mph - N/A   Overcast
1:35 AM 53.6 °F 53.6 °F 100% 30.06 in 7.0 mi Calm Calm - N/A   Overcast
1:55 AM 55.4 °F 53.6 °F 94% 30.07 in 7.0 mi Calm Calm - N/A   Overcast
2:15 AM 55.4 °F 53.6 °F 94% 30.07 in 7.0 mi Calm Calm - N/A   Overcast
2:35 AM 55.4 °F 53.6 °F 94% 30.07 in 7.0 mi WSW 3.5 mph - N/A   Overcast
2:55 AM 53.6 °F 53.6 °F 100% 30.07 in 7.0 mi Calm Calm - N/A   Mostly Cloudy
3:15 AM 53.6 °F 51.8 °F 94% 30.07 in 5.0 mi Calm Calm - N/A   Mostly Cloudy
3:35 AM 53.6 °F 53.6 °F 100% 30.07 in 5.0 mi Calm Calm - N/A   Overcast
3:55 AM 51.8 °F 51.8 °F 100% 30.07 in 5.0 mi West 3.5 mph - N/A   Overcast
4:15 AM 53.6 °F 51.8 °F 94% 30.07 in 5.0 mi Calm Calm - N/A   Overcast
4:35 AM 53.6 °F 53.6 °F 100% 30.07 in 7.0 mi WSW 3.5 mph - N/A   Overcast
4:55 AM 53.6 °F 53.6 °F 100% 30.07 in 5.0 mi Calm Calm - N/A   Overcast
5:15 AM 53.6 °F 53.6 °F 100% 30.07 in 5.0 mi Calm Calm - N/A   Overcast
5:35 AM 53.6 °F 53.6 °F 100% 30.08 in 5.0 mi Calm Calm - N/A   Overcast
5:55 AM 51.8 °F 51.8 °F 100% 30.08 in 2.0 mi Calm Calm - N/A   Overcast
6:15 AM 51.8 °F 51.8 °F 100% 30.08 in 1.2 mi Calm Calm - N/A   Overcast
6:35 AM 50.0 °F 50.0 °F 100% 30.09 in 2.0 mi Calm Calm - N/A   Overcast
6:55 AM 51.8 °F 51.8 °F 100% 30.09 in 1.5 mi Calm Calm - N/A   Overcast
7:15 AM 51.8 °F 51.8 °F 100% 30.09 in 3.0 mi Calm Calm - N/A   Overcast
7:35 AM 51.8 °F 51.8 °F 100% 30.09 in 2.0 mi Calm Calm - N/A   Overcast
7:55 AM 53.6 °F 51.8 °F 94% 30.10 in 2.5 mi Calm Calm - N/A   Overcast
8:15 AM 53.6 °F 53.6 °F 100% 30.10 in 4.0 mi Calm Calm - N/A   Overcast
8:35 AM 55.4 °F 53.6 °F 94% 30.10 in 7.0 mi Calm Calm - N/A   Overcast
8:55 AM 55.4 °F 53.6 °F 94% 30.10 in 7.0 mi Calm Calm - N/A   Overcast
9:15 AM 55.4 °F 55.4 °F 100% 30.11 in 10.0 mi Calm Calm - N/A   Overcast
9:35 AM 59.0 °F 55.4 °F 88% 30.11 in 10.0 mi Calm Calm - N/A   Mostly Cloudy
9:55 AM 60.8 °F 55.4 °F 82% 30.11 in 10.0 mi Calm Calm - N/A   Mostly Cloudy
10:15 AM 59.0 °F 55.4 °F 88% 30.12 in 10.0 mi Calm Calm - N/A   Overcast
10:35 AM 59.0 °F 55.4 °F 88% 30.11 in 10.0 mi Calm Calm - N/A   Overcast
10:55 AM 60.8 °F 55.4 °F 82% 30.10 in 10.0 mi WSW 3.5 mph - N/A   Mostly Cloudy
11:15 AM 60.8 °F 55.4 °F 82% 30.10 in 10.0 mi Calm Calm - N/A   Mostly Cloudy
11:35 AM 62.6 °F 55.4 °F 77% 30.09 in 10.0 mi WNW 3.5 mph - N/A   Mostly Cloudy
11:55 AM 64.4 °F 55.4 °F 73% 30.09 in 10.0 mi WNW 5.8 mph - N/A   Mostly Cloudy
12:15 PM 64.4 °F 55.4 °F 73% 30.08 in 10.0 mi Calm Calm - N/A   Overcast
12:35 PM 68.0 °F 55.4 °F 64% 30.07 in 10.0 mi WNW 4.6 mph - N/A   Mostly Cloudy
12:55 PM 66.2 °F 55.4 °F 68% 30.06 in 10.0 mi WNW 5.8 mph - N/A   Mostly Cloudy
1:15 PM 66.2 °F 55.4 °F 68% 30.05 in 10.0 mi WNW 3.5 mph - N/A   Overcast
1:35 PM 66.2 °F 55.4 °F 68% 30.05 in 10.0 mi WNW 4.6 mph - N/A   Overcast
1:55 PM 66.2 °F 55.4 °F 68% 30.04 in 10.0 mi WNW 5.8 mph - N/A   Overcast
2:15 PM 66.2 °F 55.4 °F 68% 30.04 in 10.0 mi WNW 5.8 mph - N/A   Overcast
2:35 PM 68.0 °F 57.2 °F 68% 30.03 in 10.0 mi WNW 4.6 mph - N/A   Overcast
2:55 PM 68.0 °F 55.4 °F 64% 30.03 in 10.0 mi NW 8.1 mph - N/A   Overcast
3:15 PM 68.0 °F 55.4 °F 64% 30.04 in 10.0 mi NW 9.2 mph - N/A   Overcast
3:35 PM 68.0 °F 55.4 °F 64% 30.05 in 10.0 mi SSW 10.4 mph 17.3 mph N/A   Overcast
3:55 PM 68.0 °F 55.4 °F 64% 30.04 in 10.0 mi SW 8.1 mph - N/A   Overcast
4:15 PM 68.0 °F 55.4 °F 64% 30.04 in 10.0 mi SW 5.8 mph - N/A   Mostly Cloudy
4:35 PM 66.2 °F 55.4 °F 68% 30.05 in 10.0 mi SW 6.9 mph - N/A   Scattered Clouds
4:55 PM 64.4 °F 55.4 °F 73% 30.04 in 10.0 mi WSW 3.5 mph - N/A   Clear
5:15 PM 62.6 °F 55.4 °F 77% 30.04 in 10.0 mi WSW 3.5 mph - N/A   Clear
5:35 PM 62.6 °F 55.4 °F 77% 30.04 in 10.0 mi SW 4.6 mph - N/A   Clear
5:55 PM 60.8 °F 55.4 °F 82% 30.04 in 10.0 mi SW 3.5 mph - N/A   Clear
6:15 PM 60.8 °F 55.4 °F 82% 30.04 in 10.0 mi SW 3.5 mph - N/A   Clear
6:35 PM 60.8 °F 57.2 °F 88% 30.04 in 10.0 mi WSW 3.5 mph - N/A   Clear
6:55 PM 60.8 °F 57.2 °F 88% 30.04 in 10.0 mi SW 3.5 mph - N/A   Clear
7:15 PM 59.0 °F 55.4 °F 88% 30.04 in 10.0 mi Calm Calm - N/A   Clear
7:35 PM 57.2 °F 55.4 °F 94% 30.04 in 10.0 mi Calm Calm - N/A   Clear
7:55 PM 59.0 °F 57.2 °F 94% 30.04 in 10.0 mi Calm Calm - N/A   Clear
8:15 PM 59.0 °F 55.4 °F 88% 30.03 in 7.0 mi Calm Calm - N/A   Clear
8:35 PM 59.0 °F 55.4 °F 88% 30.03 in 7.0 mi WSW 3.5 mph - N/A   Clear
8:55 PM 59.0 °F 55.4 °F 88% 30.02 in 7.0 mi Calm Calm - N/A   Clear
9:15 PM 55.4 °F 55.4 °F 100% 30.02 in 5.0 mi WSW 3.5 mph - N/A   Clear
9:35 PM 59.0 °F 57.2 °F 94% 30.02 in 7.0 mi Calm Calm - N/A   Clear
9:55 PM 55.4 °F 53.6 °F 94% 30.01 in 2.5 mi Calm Calm - N/A   Clear
10:15 PM 53.6 °F 53.6 °F 100% 30.01 in 0.8 mi Calm Calm - N/A   Mist
10:35 PM 51.8 °F 51.8 °F 100% 30.01 in 0.8 mi Calm Calm - N/A   Mist
10:55 PM 51.8 °F 50.0 °F 94% 30.00 in 1.8 mi Calm Calm - N/A   Scattered Clouds
11:15 PM 51.8 °F 51.8 °F 100% 29.99 in 0.2 mi Calm Calm - N/A Fog Fog
11:35 PM 51.8 °F 51.8 °F 100% 29.99 in 0.2 mi Calm Calm - N/A Fog Fog
11:55 PM 53.6 °F 53.6 °F 100% 29.99 in 0.2 mi WSW 5.8 mph - N/A Fog Fog